Location: S�deilles
(46.7500°N, 6.9329°E)
Time: 07:23:06
(UTC+00:00)

Cosmos 1937 Rocket - Pass Details

Date: 08 March 2021
Orbit: 747 x 780 km, 74.0° (Epoch: 14 April)

Event Time Altitude Azimuth Distance (km) Brightness Sun altitude
Rises 19:32:16 0° 341° (NNW) 3,215 7.2 -21.8°
Reaches altitude 10° 19:34:42 10° 346° (NNW) 2,282 6.3 -22.2°
Maximum altitude 19:39:45 52° 63° (ENE) 924 3.6 -23.0°
Enters shadow 19:39:50 52° 67° (ENE) 925 3.6 -23.0°
